TIMESTAMP,CO2_1_1_1,H2O_1_1_1,TAU_1_1_1,TAU_SSITC_TEST_1_1_1,H_1_1_1,H_SSITC_TEST_1_1_1,LE_1_1_1,LE_SSITC_TEST_1_1_1,FC_1_1_1,FC_SSITC_TEST_1_1_1,WD_0_0_1,WS_0_0_1,WS_MAX_0_0_1,U_SIGMA_0_0_1,V_SIGMA_0_0_1,W_SIGMA_0_0_1,USTAR_0_0_1,MO_LENGTH_0_0_1,ZL_0_0_1,FETCH_MAX_0_0_1,FETCH_70_0_0_1,FETCH_80_0_0_1,FETCH_90_0_0_1,PA_0_0_1,RH_0_0_1,TA_0_0_1,VPD_0_0_1,T_SONIC_0_0_1,T_SONIC_SIGMA_0_0_1
[yyyymmddHHMMSS],[mmolCO2 mol-1],[mmolH2O mol-1],[kg m-1 s-2],[#],[W m-2],[#],[W m-2],[#],[umolCO2 m-2 s-1],[#],[Decimal degrees],[m s-1],[m s-1],[m s-1],[m s-1],[m s-1],[m s-1],[m],[#],[m],[m],[m],[m],[kPa],[%],[deg C],[hPa],[deg C],[deg C]
20221027003000,418.90825649732017,4.9395336379660710,9.3881198313937200E-004,2,-3.3925389903273234E-002,2,-9.6383038639528879E-002,2,-5.4683476040848370E-003,2,304.77639707134625,1.6117464846412479,2.9032642090094645,0.30192250054589304,0.21571119187791857,7.8748428439238710E-002,2.8056887256900899E-002,54.273510276306347,0.35007870143779229,1455.1755949156716,-9999.,-9999.,-9999.,94.000164151964384,71.258965517241379,0.92827586206897195,1.8732421486856579,1.5110920338973415,0.19125452907532894
20221027010000,419.67601318511271,5.0202738912693325,1.8800849068569107E-002,0,-6.7216643391069280,0,1.5292099799989831,0,0.39707769831113426,0,289.03760435798807,2.0558774154801354,3.3268423687530504,0.34023694677858207,0.28742190107601523,0.17118314052453576,0.12551825246745776,24.531621166844335,0.77451057436348369,345.60907148510552,3548.0000000000000,6708.0000000000000,-9999.,94.025338235677097,72.975999999999999,0.82666666666665378,1.7484707546679585,1.3437588721380962,0.22195316308664578
20221027013000,419.31039687071222,4.9383130104353103,7.4211100301713089E-003,0,-2.3589945465955968,1,0.18557251140182893,0,5.6725791351854418E-002,0,275.07502187613414,1.3739863455060244,2.2456084411904804,0.26570272282995366,0.19251742844721059,0.10916875002101942,7.8781689635777155E-002,17.287022246245073,1.0990903886947334,408.74943145967529,4105.0000000000000,7711.0000000000000,-9999.,94.054830764322915,74.150999999999996,0.38233333333334940,1.6195819712436117,0.90310704633930072,0.15737921467155949
20221027020000,419.23314539162635,4.9994766778191950,3.5400809960693088E-003,0,-0.35466703525127236,2,0.10200380546881661,2,2.3208186719286764E-002,2,250.87669451767493,1.6481041302015065,2.2353625148486560,0.16648250260710579,0.37923104877695929,7.2169483115562288E-002,5.4440072013827424E-002,37.947205899142695,0.50069562566737613,750.65576447794035,8717.0000000000000,-9999.,-9999.,94.075161833767353,73.305999999999997,0.71399999999999864,1.7131292635681143,1.2880002009073905,0.13739919311839863
20221027023000,419.74608987512880,5.0895358552313521,2.2113618408693895E-003,1,0.36382669484146091,1,0.57306973412265960,0,-6.8159305701557468E-002,0,214.55054660314545,1.6365663653703022,2.1514854759519348,0.11178718247267654,0.18298041230760245,9.6137298584178299E-002,4.3021612344428271E-002,-18.261223679938158,-1.0404560139566914,471.35242434635933,1376.0000000000000,1861.0000000000000,2963.0000000000000,94.109555393663200,74.540666666666667,0.73500000000001364,1.6363723547448052,1.3256788211398884,0.16393054484163361
20221027030000,419.90733200751293,5.1623810095616927,5.5381700363172090E-003,0,-2.1176369568054678,0,-0.14848265590625348,1,3.1829415774863604E-002,1,213.23051500856934,1.6556969428833226,2.3970626998245339,0.23582229329517929,0.47402247875468229,0.12233478476807320,6.8092482652266015E-002,12.442343957335765,1.5270434626425808,766.32856689390417,8002.0000000000000,-9999.,-9999.,94.135601693793404,74.852000000000004,0.87799999999998590,1.6331289571798897,1.4034226845636226,0.30917385474893311
20221027033000,422.10714832751978,5.2091723181905651,2.9087621082460737E-002,0,-24.759997653821081,0,10.739975465784969,0,1.8375722772003764,0,187.19108293187662,1.9858096486042434,2.8816593019330394,0.37281609171182317,0.34951410585986153,0.24310416546271946,0.15577453484874926,12.743729367006816,1.4909293388786571,233.34055157854738,2043.0000000000000,3691.0000000000000,9688.0000000000000,94.167006794487861,80.573999999999998,-1.0333333333335304E-002,1.1829664548259415,0.61417567274310159,0.58908297989552794
20221027040000,422.80213923610103,5.2044417195140484,2.8218863412898285E-002,0,-30.617279545562592,0,6.7396672787352143,0,2.7117227389272798,0,181.76779330900908,2.2248632869055487,3.2698074040589753,0.37990917429246268,0.29873930437382729,0.23462069717642184,0.15338649058882703,9.8405853954162854,1.9307794441629602,298.46390986104262,2572.0000000000000,4626.0000000000000,-9999.,94.188063413845498,81.080666666666673,-0.10599999999999454,1.1441290545455496,0.47310881890189194,0.53179593797232450
20221027043000,424.18248682786611,5.2194263130196799,2.1038835847624900E-002,0,-19.277283794289904,0,2.5872706688333338,0,2.1224734903255662,0,173.30387162810021,2.0569152782506799,3.2152818449330169,0.35057744074376718,0.28203162350836858,0.19275698072268879,0.13237022391278835,10.047610783437481,1.8909968160111925,343.25783425509985,3027.0000000000000,5480.0000000000000,-9999.,94.221972597182841,82.549999999999997,-0.30833333333333712,1.0398478444151777,0.29462833909269648,0.35913758481659519
20221027050000,423.35568110191900,5.1983829676439397,3.4390546325953383E-002,0,-30.293246910897324,0,7.8170235366189686,0,3.1380521447867489,0,184.36514296846937,2.1650020950640201,3.0782982787163391,0.37794502790649798,0.29508051154947851,0.20174711322869593,0.16925981996933631,13.368641984025810,1.4212363546501656,235.25206017560578,2080.0000000000000,3768.0000000000000,9939.0000000000000,94.232509014973957,81.620000000000005,-0.20666666666664923,1.1034036637122364,0.36626367187500364,0.46652059478158903
20221027053000,422.82348066345827,5.1464530822270422,1.0218638763561022E-002,0,-8.9587164103171997,0,0.52554605512782104,1,0.72363571201019783,0,175.17668554877761,1.8900031535973094,2.8013002086838155,0.23800827405216085,0.19879826076381685,0.13506055199551717,9.2251934439515140E-002,7.3190072185566590,2.5959804974405922,590.41737033927154,5248.0000000000000,9520.0000000000000,-9999.,94.233739792534720,81.163333333333327,-0.26733333333334031,1.1258359225794237,0.35447563849561448,0.28420868111503972
20221027060000,425.23858610120686,5.2730858571862775,2.7655180320381639E-002,0,-13.546334320552958,1,2.7772753677282158,2,1.3202590947857815,2,162.71646742563286,2.1922846557581024,3.1525839090957533,0.37835584254000515,0.37899643514065290,0.22143092292607067,0.15172916680546752,21.539105581119067,0.88211648011304533,286.03774473024805,2809.0000000000000,5244.0000000000000,-9999.,94.252642778885161,83.673333333333332,-0.34899999999998954,0.97003033052636856,0.20485004586555533,0.42246834753966034
20221027063000,428.43064384872531,5.3400933902405106,4.8122082093510807E-002,1,-13.927636763492313,0,0.89549787693120919,1,1.5155131470334398,1,128.85838375575051,1.8786411500617690,3.2072461844812854,0.40669420514251153,0.70090825906178256,0.23217031825831838,0.19982466762560955,47.864099336886021,0.39695722395757749,126.51758604610633,1163.0000000000000,2131.0000000000000,5733.0000000000000,94.282274000000001,89.896666666666661,-1.1533333333333076,0.56600005497597017,-0.56310826789007251,0.29858033928019634
20221027070000,424.94492274009463,5.0734729110366246,5.9450617712941335E-002,0,-22.532586332976070,0,-1.1587525279368873,2,1.3542400991441781,0,136.16536322937424,2.2348877521644024,3.6651100193621491,0.49402832714035616,0.44571927101047304,0.25637345553449259,0.22193235230262950,40.540766117187097,0.46866405891488633,111.56627865593613,203.97873962262460,244.11045443125587,305.59732174763195,94.319250963107635,87.246666666666670,-1.4379999999999882,0.69967609462882707,-0.81614046732579482,0.31042805326836792
20221027073000,424.75089478625807,5.0547576887942958,9.5105537609659493E-002,0,-48.188193857951077,0,0.24707437122296383,2,2.9434157580149329,0,147.80407346626015,2.9567950478902150,4.4650943650664834,0.55510412535397591,0.40058542281197723,0.34328822499137440,0.28080774639083367,38.406033021662175,0.49471394218932790,106.62401727592685,194.94270956654611,233.29663428840826,292.05970214336605,94.341021266710072,85.239999999999995,-1.1683333333333508,0.82596246279363073,-0.54954115634495793,0.38547818321989985
20221027080000,425.75235321152667,5.0656367311762560,0.12727673883809371,0,-42.573657936916888,0,-2.0064370394555180,1,1.4234686231664346,0,149.45444249759819,2.8806876955341658,5.0689644814874963,0.63970675907527885,0.47469249345463643,0.38813481605840039,0.32465158269183608,67.193147680418392,0.28276692871075348,108.54325434406613,198.45168703637268,237.49598411443981,297.31678981257943,94.371775172092029,86.983333333333334,-1.4103333333333126,0.71557701630082593,-0.83859524620908132,0.29128944447373678
20221027083000,426.87220128389691,5.1311835073098440,0.10062661473718947,0,-32.420003358227994,0,-0.75023787937762687,0,1.2155552691301887,0,152.08221120117901,2.7784768937805371,5.1100103250003439,0.63918421037673101,0.57599999061806184,0.42126816074753098,0.28858018183894585,61.987561075013261,0.30651310796060283,92.516925660425329,169.15044686730272,202.42988327322408,253.41819265427674,94.402372226345491,88.689999999999998,-1.4953333333333489,0.61788106117163755,-0.89360962592229498,0.20736300813145389
20221027090000,426.93995997247026,5.1109968604407729,8.0897770424681326E-002,0,-24.225351096036935,0,-0.24580842458022198,2,0.82673134666440240,0,144.39399982223631,2.0945487456464948,4.2638657713818144,0.55217001447543645,0.53252865944642946,0.31027323223357300,0.25871067858961383,59.778869285844046,0.31783806262958708,108.27069783944124,197.95336681847971,236.89962208638144,296.57021532034298,94.420088782118057,88.533333333333331,-1.5223333333333358,0.62519697753180081,-0.94154499308268669,0.16922895558150686
20221027093000,427.38091385873878,5.1160597828550918,6.7443840343968359E-002,0,-22.871673358780441,0,0.18984257795854284,2,1.1879086679802058,0,160.06729381534137,1.9397675036699054,4.0759080089465316,0.51526675460078208,0.47651543645459998,0.29815185445962211,0.23613401107300713,48.154422298720000,0.39456396926819826,103.90386993214959,189.96941267562224,227.34486810772182,284.60879714741424,94.445693886126236,89.466666666666669,-1.6476666666666802,0.56903479448465422,-1.0331672240315584,0.22248899618695372
20221027100000,427.04376655410186,5.1510317143671909,8.3904290118889654E-002,0,-37.737605871942485,0,-0.31129252197801593,0,2.7180971299449541,0,161.70660922559654,1.8173436690266798,4.2207641916899021,0.59047860017272680,0.45424213983431649,0.30552201916889332,0.26342452482298379,40.527210082612648,0.46882082337445558,111.21051491990721,203.32829004813973,243.33203241773683,304.62282975762253,94.473277081380203,88.973333333333329,-1.4759999999999991,0.60325935880474169,-0.84633474985753310,0.29067776595984413
20221027103000,426.33727104879813,5.1250669151498451,2.8159741620962297E-002,0,-18.490368494479611,0,0.30388931765640259,1,0.74088232432503742,0,151.08160172146427,2.3117870449721694,3.9206369085625763,0.43478714650014844,0.37140929163880676,0.22825172177991512,0.15269693492125397,16.111455545985027,1.1792851332252721,321.31174339952770,3072.0000000000000,5690.0000000000000,-9999.,94.484518761718746,86.286666666666662,-1.1256666666666888,0.76979664737828046,-0.51788086615664497,0.28989834696648104
20221027110000,426.08101916223688,5.0724426441662480,3.6354824973807369E-002,0,-16.589937727015446,0,-1.1658915686300670,1,0.21548452215455169,1,126.06614766483190,2.1741121156036627,3.5637941799044168,0.39966636001683603,0.43452359473327062,0.25228664106493087,0.17344079198455922,26.318078600223075,0.72193720098696545,218.30573487035957,2108.0000000000000,3916.0000000000000,-9999.,94.502867263033423,86.200000000000003,-1.2500000000000000,0.76762733294738550,-0.68788190196141841,0.25533165994744050
20221027113000,426.62557495987204,5.0297254638411966,6.5277439157126235E-002,0,-17.880561037778005,0,0.55395067623317873,0,0.40973596730849676,0,131.60745709292107,2.2372054649382078,3.9740420946850468,0.48537850344384381,0.53608617738961239,0.29017405670390362,0.23232673203029247,58.694683560724961,0.32370904564708625,104.81112477333400,191.62816387939802,229.32996964767267,287.09390871471470,94.515365059027786,86.436666666666667,-1.4006666666666661,0.74615937638440699,-0.84238843451601042,0.16929207456185563
20221027120000,428.20812335195649,5.1665636799342503,7.6118444655293896E-002,0,-28.458875772543426,0,0.10864774782114470,2,0.47651897175269037,0,142.63711319365473,2.4058056517363884,4.3248474787403683,0.54268737005206003,0.47976645262516304,0.31742562830394261,0.25097019857108971,46.501057620909016,0.40859285728281425,103.76216695749160,189.71033444410165,227.03481763409530,284.22065074636146,94.552089281467005,86.943333333333328,-1.1093333333333248,0.73381304135107939,-0.51983471425364769,0.25928633197033196
20221027123000,428.96545941178709,5.2553053945977277,0.10334836547353161,0,-27.863987928646825,0,1.2597627564579323,0,0.32545012337759277,1,139.91596709104962,2.3062101114220286,4.7882047637947380,0.57987800228550845,0.53319311893838861,0.36107713727586416,0.29269594391625264,75.354166462495229,0.25214266034588217,105.85424299003240,193.53531666501456,231.61234443843762,289.95117111630714,94.575575494140622,85.003333333333330,-0.56466666666665333,0.87710626383800727,-1.9886926439085073E-002,0.18996315776845765
20221027130000,429.77748782190741,5.2766232646136881,0.15349747406165767,0,-33.891297357731617,0,1.7336833203251951,1,2.2506489782406870E-002,2,142.95692855582922,2.3238000452078205,5.0898355025595610,0.74069851575023049,0.61247723786987318,0.46847132973308980,0.35690912004163089,112.34485633525397,0.16912211755650958,100.72901852966393,184.16477174495790,220.39819543969654,275.91238728921280,94.595244874782992,83.163333333333327,-0.20600000000001728,1.0108020138077245,0.29491900126140536,0.13910705595474349
20221027133000,430.51101190634722,5.3455186749663834,0.26761695345589320,0,-33.420489320920403,0,6.4491310318466661,0,3.2204465886699780,0,150.61892966096727,2.7062573054414800,6.0988918691638254,0.96708508955501882,0.76321987956065440,0.59268152109042715,0.47142152973325824,262.59018971940640,7.2356092283198614E-002,104.26182453000106,190.62386784425826,228.12808379439679,285.58929024737694,94.622176009982638,82.733333333333334,4.7666666666657420E-002,1.0559108298610300,0.55657447984481223,0.20950287459149100
20221027140000,430.18740686958495,5.3414514428343356,0.27694447042868658,0,-12.660402223953879,0,12.639862874599554,0,1.5656554275911216,0,143.96766612471873,2.3501124201561145,6.0279842943979762,0.93626135781050046,0.78891223678376787,0.58131407839220217,0.47990007168753396,731.41320327996880,2.5977108308676812E-002,107.41053479105541,196.38071443109669,235.01755883970824,294.21409546925747,94.650375586686323,79.971666666666664,0.50966666666664651,1.2665045936562040,0.93127927666228061,0.18977163803862918
20221027143000,428.74432880548119,5.3881713070287498,0.52754229876643222,0,23.966781290054055,1,26.124454326171140,0,3.4402595629167463,0,149.94225712896434,2.9619344411102095,7.7522569610295875,1.3167852339961394,1.0433631454239978,0.79127467838316945,0.66326882645781260,-1020.2315367610433,-1.8623223567779342E-002,108.72883986718269,198.79099656209652,237.90205095586916,297.82513731240465,94.672844580295134,76.027000000000001,1.3353333333333239,1.6089325286244822,1.7059961123995890,0.21566556404785442
20221027150000,428.76679709826624,5.5223655910133358,0.64087854518613152,0,52.827049156990753,0,26.045811560191886,0,0.89936381594550141,0,151.85104453551074,2.8813387361452842,8.4327947880325524,1.4859992638461490,1.1019615026889067,0.83372247359699003,0.73206961738747856,-622.42617798844992,-3.0525708384252073E-002,112.84429289150381,206.31535724697696,246.90678894713730,309.09800073639065,94.682929241753470,73.697999999999993,2.1146666666666647,1.8665790634554207,2.4804979265001066,0.28001211158895323
20221027153000,427.61854333996871,5.7204078589488336,0.56040837527373200,0,56.331775523608577,0,26.717423540469351,0,0.53255391431948174,1,150.38892859323050,2.7362871131614206,8.2411097640410649,1.4871600070835627,0.99475235988409672,0.74869720369540183,0.68578710815450761,-479.79859587111326,-3.9599949152631340E-002,116.72432853970867,213.40929988579569,255.39642646757244,319.72601949493912,94.663874800542075,71.568666666666672,3.0193333333333499,2.1518007364250820,3.3928370791471139,0.35638417328945116
20221027160000,425.94807799931385,5.8366379630174388,0.62380403927953865,0,79.982253722262328,0,42.621725225817976,0,-0.48309017322079906,2,150.39275618693560,2.6210551479691988,7.2522419938936489,1.3433427373080351,1.0610907179323796,0.79980407490827576,0.72469006234190958,-398.80554506644364,-4.7642266350219564E-002,115.71505191608503,211.56402032554237,253.18809812492498,316.96145445971854,94.675852912543405,68.519333333333336,3.9226666666666574,2.5395060579742550,4.2917238989936095,0.29105164074381334
20221027163000,424.53083075370586,6.0450379557664355,0.39973565490418100,0,58.988038891468612,0,32.949131662437495,0,-0.31923890470737615,2,151.76421552942026,2.5405222323967713,6.9798673782251566,1.2773776026290271,1.0656969680523758,0.72325032765989450,0.58141956174436171,-279.25851219966393,-6.8037317288346083E-002,105.15155514584393,192.25057917504472,230.07484178947712,288.02640024651004,94.669890444444448,65.210333333333338,5.1299999999999955,3.0539451543737073,5.4946310933432301,0.45876577850036188
20221027170000,422.47696960699039,6.2817049674473528,0.45830212301506057,0,102.59078823566809,0,41.814581152394553,0,-2.0603221499480955,1,166.97934449446149,2.9370006793571966,7.9174795179424375,1.4019112010581249,1.3775475985214460,0.84812051359612961,0.62429082271081360,-198.77662594389764,-9.5584679082753546E-002,97.993756493031313,179.16384037491039,214.41335784544356,268.42008080787241,94.664905392578120,61.023666666666664,6.6423333333333403,3.7991435292295397,6.9150276116264422,0.43276812747995563
20221027173000,422.43862851489507,6.3933949617361625,0.95049800976532661,0,159.64971660868511,0,56.844490905702500,0,-3.4381291935212843,1,184.93014840435100,3.7751874256100089,10.121244121493577,1.8179551488223229,1.4537882853136794,1.0248434475663379,0.90004734907575901,-382.79757459887048,-4.9634588254405476E-002,112.86029015953663,206.34460535500790,246.94179146237931,309.14181973192404,94.669748210720485,59.524000000000001,7.2623333333333449,4.1168468861540637,7.5011176401774833,0.36336353878862659
20221027180000,421.65638597718100,6.6238779105495311,0.45164952809125730,0,102.17657709809495,1,46.397303839847567,1,-3.0493135529418876,1,187.23919890162387,2.6184428274736007,8.2809905774043617,1.4192210790815609,1.1215841669510906,0.78224388596832095,0.62112135989980077,-196.58295509310813,-9.6651309321303960E-002,104.11716388262415,190.35938204370615,227.81156184175194,285.19304232252688,94.671435621744791,59.159666666666666,7.8709999999999809,4.3302335547804818,8.2210496622722076,0.34708661328851825
20221027183000,421.56615568416851,6.7693672991868166,0.25996742614385010,0,39.513066245073787,0,19.741548982395127,0,-1.2265472093991074,0,203.46828924152695,2.5919767029454759,6.8507740141966229,1.0507853743883742,1.2461277528083323,0.74490083243590910,0.47165964019058398,-222.58944315424907,-8.5358944839236880E-002,86.871856836566323,158.82946065492928,190.07829879367299,237.95547457821249,94.664508384982639,58.538333333333334,8.3446666666666829,4.5400239585012274,8.7445297665066164,0.18345003920817102
20221027190000,421.78819940928264,6.9018026983146825,0.54032054343882674,0,83.656193580408100,0,35.834568715125378,0,-2.7287945989846878,0,209.67140379943518,2.9120620591190565,7.8082662262289348,1.4583429856552368,1.0753735141464154,0.81156794091441509,0.68050795361948757,-315.71604700327447,-6.0180659742654574E-002,108.75808647834789,198.84446869503472,237.96604344202288,297.90524831144444,94.641240111545144,58.249000000000002,8.6999999999999886,4.6831476413734752,9.0672793189154959,0.22272965886509188
20221027193000,421.79555803912353,7.0068560617205602,0.45097323836552394,0,92.580007844023157,0,35.114056761008626,0,-2.3615392602871967,0,206.32934319699928,1.9806184082153182,7.5373270314066128,1.2288565875444437,1.0913876415144388,0.74085511547475669,0.62238495653300385,-218.23911561559584,-8.7060470101365361E-002,108.92198370407132,199.14412509599629,238.32465562066116,298.35418820463042,94.630663139539934,56.873333333333335,9.2760000000000105,5.0293141951555036,9.6027142706977884,0.38591006104035147
20221027200000,422.03191585495944,7.0073040214942370,0.37989809061743829,0,88.285995442296112,0,41.972429665590987,0,-0.90831406807553339,1,200.51579544930195,1.6840274622650553,5.5173559697882419,1.0158343075685456,1.1622211287705519,0.64885562815863895,0.57199058089466048,-177.64605591943561,-0.10695424619287187,113.20029034045768,206.96623412322757,247.68572233173555,310.07313290230968,94.631311905381935,54.096333333333334,10.022333333333336,5.6283597459630936,10.380177525838292,0.33903856330553767
20221027203000,422.36482842595649,6.9526897712868756,0.35040608312268295,0,53.602556140919496,0,48.535337982840481,0,-0.30718793889810087,2,178.14782751551851,2.3119995368995521,7.0549555495116296,1.1688501980962416,1.0542607838531652,0.71802526228827634,0.54958456529548649,-259.54765183319665,-7.3204283937081116E-002,101.10455971013459,184.85138079557467,221.21989111088638,276.94105276358709,94.637376709418405,52.695000000000000,10.298666666666691,5.9083969090833213,10.613584735446466,0.20179170983687664
20221027210000,422.69473500355923,6.9087309922713391,0.28449589054628899,1,5.0693592421735190,0,23.784776719148049,0,0.40824347321450977,0,155.20768774881023,2.1418751071319360,6.2993612630153342,0.86338172675943181,0.90102239010299934,0.61786409901744355,0.49476279844431992,-2002.4343654627633,-9.4884508215124907E-003,104.82338031923243,191.65057092600622,229.35678515962312,287.12747855363227,94.646009406210069,54.068333333333335,9.8210000000000264,5.5563077373582610,10.239678874536708,5.3108212190665652E-002
20221027213000,422.58499712954085,6.9113954696170667,0.14480947457929172,0,-5.5929470912676384,0,16.632545091564353,0,8.3391558810331570E-002,0,164.73881370920455,1.3322352925994403,4.5946560251016040,0.79046969876727913,0.54284805662292357,0.39336663723730936,0.35291287180750330,658.80684792559271,2.8840015946746667E-002,114.80237698805209,209.89535947435940,251.19113726798705,314.46149643482801,94.669291838107654,54.277000000000001,9.7730000000000246,5.5132823468899890,10.212586689419254,4.1572256160434931E-002
20221027220000,422.56993383284811,6.8063519419946399,5.0061039301870898E-002,0,-8.3425091261937485,0,10.912288817187367,0,5.5321286876612773E-002,0,172.45603572406068,1.5698839582866491,4.2176872367854861,0.56980875100179129,0.49752884022976623,0.37250278539119619,0.20742965481912343,89.691145641196371,0.21183807904526353,78.387706144907995,143.31772730949868,171.51471573116868,214.71607141885869,94.683342354600697,53.963666666666668,9.6333333333333258,5.4992534548861469,10.070595343695743,9.2705804722850033E-002
20221027223000,422.89980127738971,6.7561207536213468,8.9806425486312236E-002,1,-16.418868862174854,0,8.2015242970800006,0,-7.8123268595561901E-002,1,164.02646595376049,1.5533927139224073,3.9698729584610977,0.53901345177289794,0.45273978509974550,0.32826748651694065,0.27768812254066433,109.33818514581375,0.17377277640617081,109.52630772894166,200.24902215272144,239.64693520291533,300.00952533420940,94.687972168836808,54.526333333333334,9.3696666666666601,5.3365720599539648,9.8265228424072575,0.11436742741892497